Simultaneous Nadir Overpasses (SNOs) Predictions

Prediction of SNOs between GOES-16 and TERRA Satellite Orbit:

Table of predicted SNOs for the next 14.0 days since TLE Epoch: 11/7/2020
Index Date Time (GOES-16) GOES-16 Lat,Lon TERRA Lat,Lon Distance(km) Time Diff (sec)
1 11/07/2020 15:42:06 -0.03, -75.20 0.64, -78.21 343.04 80
2 11/09/2020 15:29:55 -0.02, -75.21 -0.02, -75.26 5.77 80
3 11/11/2020 15:20:23 -0.02, -75.23 -0.63, -72.30 332.30 80
4 11/12/2020 03:41:46 0.02, -75.20 -0.49, -77.49 261.12 80
5 11/14/2020 03:26:55 0.02, -75.22 0.18, -74.55 77.41 80
6 11/16/2020 03:14:44 0.02, -75.25 0.79, -71.59 416.22 80
7 11/16/2020 15:35:59 -0.01, -75.29 0.27, -76.75 165.88 80
8 11/18/2020 15:26:27 -0.01, -75.31 -0.34, -73.79 173.56 80
9 11/19/2020 03:47:51 0.00, -75.29 -0.76, -78.98 419.21 80
10 11/21/2020 03:35:39 -0.00, -75.33 -0.14, -76.02 78.90 80
